Weather History for Rolla, MO

Change the Weather History Date:

Wednesday, August 7, 2013

  Actual Average Record
Temperature  
Mean Temperature 75 °F 78 °F  
Max Temperature 83 °F 89 °F 101 °F (2007)
Min Temperature 67 °F 66 °F 51 °F (1997)
Degree Days  
Heating Degree Days 0 0  
Month to date heating degree days 0 0  
Since 1 June heating degree days 19 15  
Since 1 July heating degree days 2 1  
Cooling Degree Days 10 13  
Month to date cooling degree days 65 91  
Year to date cooling degree days 671 815  
Since 1 June cooling degree days 564 708  
Growing Degree Days 24 (Base 50)    
Moisture  
Dew Point 69 °F    
Average Humidity 81    
Maximum Humidity 97    
Minimum Humidity 65    
Precipitation  
Precipitation 1.21 in 0.11 in 3.49 in (1999)
Month to date precipitation 3.30 0.83  
Year to date precipitation 31.99 26.71  
Sea Level Pressure  
Sea Level Pressure 29.89 in    
Wind  
Wind Speed 7 mph (SW)    
Max Wind Speed 16 mph    
Max Gust Speed 23 mph    
Visibility 7 miles    
Events Rain , Thunderstorm    
T = Trace of Precipitation, MM = Missing Value Source: NWS Daily Summary

Daily Weather History Graph

Daily Weather History Graph

Search for Another Location

Airport:

Trip Planner

Search our weather history database for the weather conditions in past years. The results will help you decide how hot, cold, wet, or windy it might be!

Date:

Astronomy

Aug. 07, 2013 Rise Set
Actual Time 6:15 AM CDT 8:09 PM CDT
Civil Twilight 5:46 AM CDT 8:38 PM CDT
Nautical Twilight 5:11 AM CDT 9:13 PM CDT
Astronomical Twilight 4:33 AM CDT 9:50 PM CDT
Moon 7:02 AM CDT (8/7) 8:19 PM CDT (8/7)
Length of Visible Light 14h 52m
Length of Day
13h 54m
New Moon, 1% of the Moon is Illuminated
Aug 7
New Moon
Aug 14
First Quarter
Aug 20
Full
Aug 28
Last Quarter
Sep 5
New

Hourly Weather History & Observations

Time (CDT) Temp. Heat Index Dew Point Humidity Pressure Visibility Wind Dir Wind Speed Gust Speed Precip Events Conditions
12:03 AM 73.4 °F - 71.6 °F 94% 29.88 in 10.0 mi SE 8.1 mph - N/A Thunderstorm Partly Cloudy
12:33 AM 73.4 °F - 71.6 °F 94% 29.90 in 10.0 mi South 6.9 mph - 0.01 in Rain , Thunderstorm Light Thunderstorms and Rain
12:45 AM 73.4 °F - 71.6 °F 94% 29.89 in 1.8 mi South 8.1 mph - 0.16 in Rain , Thunderstorm Heavy Thunderstorms and Rain
12:53 AM 73.0 °F - 72.0 °F 96% 29.86 in 1.2 mi South 8.1 mph - 0.30 in Rain , Thunderstorm Heavy Thunderstorms and Rain
12:59 AM 73.4 °F - 71.6 °F 94% 29.91 in 2.5 mi SW 6.9 mph - 0.04 in Rain , Thunderstorm Heavy Thunderstorms and Rain
1:13 AM 73.4 °F - 71.6 °F 94% 29.88 in 1.2 mi WSW 4.6 mph - 0.17 in Rain Heavy Rain
1:20 AM 73.4 °F - 71.6 °F 94% 29.90 in 1.8 mi SW 11.5 mph - 0.20 in Rain , Thunderstorm Heavy Thunderstorms and Rain
1:34 AM 71.6 °F - 69.8 °F 94% 29.89 in 2.5 mi South 12.7 mph - 0.31 in Rain , Thunderstorm Heavy Thunderstorms and Rain
1:41 AM 69.8 °F - 69.8 °F 100% 29.90 in 4.0 mi South 11.5 mph - 0.34 in Rain , Thunderstorm Heavy Thunderstorms and Rain
1:53 AM 69.1 °F - 68.0 °F 96% 29.87 in 1.8 mi SSW 10.4 mph - 0.45 in Rain , Thunderstorm Heavy Thunderstorms and Rain
2:04 AM 68.0 °F - 66.2 °F 94% 29.89 in 3.0 mi South 12.7 mph - 0.07 in Rain , Thunderstorm Heavy Thunderstorms and Rain
2:38 AM 66.2 °F - 66.2 °F 100% 29.88 in 1.8 mi South 4.6 mph - 0.27 in Rain , Thunderstorm Heavy Thunderstorms and Rain
2:51 AM 68.0 °F - 68.0 °F 100% 29.89 in 3.0 mi SSW 9.2 mph - 0.34 in Rain , Thunderstorm Heavy Thunderstorms and Rain
2:53 AM 68.0 °F - 66.9 °F 96% 29.85 in 3.0 mi South 10.4 mph - 0.35 in Rain , Thunderstorm Heavy Thunderstorms and Rain
3:53 AM 69.1 °F - 68.0 °F 96% 29.83 in 5.0 mi SSW 12.7 mph - 0.23 in Rain , Thunderstorm Thunderstorms and Rain
4:13 AM 69.8 °F - 68.0 °F 94% 29.84 in 7.0 mi SSW 13.8 mph - 0.00 in Thunderstorm Thunderstorm
4:35 AM 69.8 °F - 68.0 °F 94% 29.86 in 10.0 mi SW 10.4 mph - 0.00 in Thunderstorm Mostly Cloudy
4:53 AM 69.1 °F - 68.0 °F 96% 29.82 in 10.0 mi SW 5.8 mph - 0.00 in Rain , Thunderstorm Light Thunderstorms and Rain
5:12 AM 69.8 °F - 68.0 °F 94% 29.88 in 10.0 mi SSW 10.4 mph - 0.00 in Thunderstorm Mostly Cloudy
5:53 AM 68.0 °F - 68.0 °F 100% 29.86 in 9.0 mi SW 10.4 mph 18.4 mph 0.02 in Rain , Thunderstorm Light Rain
6:01 AM 69.8 °F - 68.0 °F 94% 29.93 in 8.0 mi WSW 10.4 mph - 0.01 in Rain Light Rain
6:10 AM 69.8 °F - 68.0 °F 94% 29.94 in 8.0 mi SW 9.2 mph - 0.02 in Rain , Thunderstorm Rain
6:32 AM 68.0 °F - 68.0 °F 100% 29.96 in 9.0 mi SSW 10.4 mph - 0.03 in Rain Rain
6:41 AM 69.8 °F - 68.0 °F 94% 29.97 in 6.0 mi SW 8.1 mph - 0.04 in Rain , Thunderstorm Rain
6:53 AM 69.1 °F - 66.9 °F 93% 29.92 in 6.0 mi SW 11.5 mph - 0.06 in Rain , Thunderstorm Rain
7:14 AM 69.8 °F - 66.2 °F 88% 29.97 in 6.0 mi SW 13.8 mph 23.0 mph 0.04 in Rain Rain
7:53 AM 69.1 °F - 68.0 °F 96% 29.94 in 7.0 mi SW 13.8 mph - 0.12 in Rain Rain
8:53 AM 69.1 °F - 66.9 °F 93% 29.86 in 10.0 mi South 10.4 mph - 0.02 in   Scattered Clouds
9:53 AM 70.0 °F - 66.0 °F 87% 29.87 in 10.0 mi SSW 5.8 mph - 0.00 in Rain Light Rain
10:53 AM 71.1 °F - 69.1 °F 93% 29.91 in 10.0 mi WNW 10.4 mph - 0.00 in   Partly Cloudy
11:53 AM 73.9 °F - 68.0 °F 82% 29.90 in 10.0 mi SW 6.9 mph - N/A   Clear
12:53 PM 78.1 °F - 69.1 °F 74% 29.89 in 10.0 mi West 8.1 mph - N/A   Clear
1:53 PM 79.0 °F - 70.0 °F 74% 29.88 in 10.0 mi SW 5.8 mph - N/A   Clear
2:53 PM 80.1 °F 83.2 °F 70.0 °F 71% 29.88 in 10.0 mi West 9.2 mph - N/A   Clear
3:53 PM 82.0 °F 86.7 °F 72.0 °F 71% 29.86 in 10.0 mi WNW 6.9 mph - N/A   Clear
4:53 PM 82.0 °F 86.3 °F 71.1 °F 69% 29.86 in 10.0 mi Variable 6.9 mph - N/A   Clear
5:53 PM 82.0 °F 85.5 °F 69.1 °F 65% 29.87 in 10.0 mi WNW 5.8 mph - N/A   Clear
6:53 PM 81.0 °F 84.9 °F 71.1 °F 72% 29.88 in 10.0 mi WNW 3.5 mph - N/A   Clear
7:53 PM 78.1 °F - 71.1 °F 79% 29.89 in 10.0 mi Calm Calm - N/A   Clear
8:53 PM 73.9 °F - 71.1 °F 91% 29.89 in 10.0 mi South 4.6 mph - N/A   Mostly Cloudy
9:53 PM 73.0 °F - 70.0 °F 90% 29.91 in 10.0 mi Calm Calm - N/A   Partly Cloudy
10:53 PM 72.0 °F - 70.0 °F 93% 29.91 in 10.0 mi Calm Calm - N/A   Clear
11:53 PM 72.0 °F - 70.0 °F 93% 29.92 in 10.0 mi SSW 3.5 mph - N/A   Mostly Cloudy